This is the latest recevied weather packets stored in our database for station/object KD7CIH. If no packets are shown the sender has not sent any weather packets the latest 10 day(s).
| Time | Temp. | Humidity | Pressure | Rain* | Wind** | Luminosity | Snow |
|---|---|---|---|---|---|---|---|
| 1787745065 | 12.22° C | 70% | 1022.8 hPa | 0 mm | - | - | - |
| 1787744892 | 12.78° C | 69% | 1022.9 hPa | 0 mm | - | - | - |
| 1787744469 | 12.78° C | 67% | 1022.8 hPa | 0 mm | - | - | - |
| 1787744165 | 12.78° C | 66% | 1022.8 hPa | 0 mm | - | - | - |
| 1787743993 | 13.33° C | 64% | 1022.7 hPa | 0 mm | - | - | - |
| 1787743696 | 13.89° C | 62% | 1022.8 hPa | 0 mm | - | - | - |
| 1787743267 | 13.89° C | 61% | 1022.7 hPa | 0 mm | - | - | - |
| 1787742969 | 13.89° C | 61% | 1022.7 hPa | 0 mm | - | - | - |
| 1787742667 | 13.89° C | 62% | 1022.5 hPa | 0 mm | - | - | - |
| 1787742492 | 13.89° C | 62% | 1022.7 hPa | 0 mm | - | - | - |
| 1787742058 | 13.33° C | 63% | 1022.5 hPa | 0 mm | - | - | - |
| 1787741753 | 13.33° C | 65% | 1022.7 hPa | 0 mm | - | - | - |
| 1787741448 | 13.33° C | 64% | 1022.5 hPa | 0 mm | - | - | - |
| 1787741141 | 13.33° C | 64% | 1022.7 hPa | 0 mm | - | - | - |
| 1787740835 | 13.33° C | 64% | 1022.7 hPa | 0 mm | - | - | - |
| 1787740535 | 13.33° C | 65% | 1022.7 hPa | 0 mm | - | - | - |
| 1787740236 | 13.89° C | 64% | 1022.7 hPa | 0 mm | - | - | - |
| 1787739934 | 13.89° C | 63% | 1022.7 hPa | 0 mm | - | - | - |
| 1787739635 | 14.44° C | 62% | 1022.5 hPa | 0 mm | - | - | - |
| 1787739335 | 14.44° C | 62% | 1022.5 hPa | 0 mm | - | - | - |
| 1787739162 | 14.44° C | 59% | 1022.7 hPa | 0 mm | - | - | - |
| 1787738734 | 15° C | 61% | 1022.5 hPa | 0 mm | - | - | - |
| 1787738436 | 15° C | 60% | 1022.4 hPa | 0 mm | - | - | - |
| 1787738262 | 15° C | 59% | 1022.5 hPa | 0 mm | - | - | - |
| 1787737834 | 15.56° C | 59% | 1022.5 hPa | 0 mm | - | - | - |
* Rain latest hour (hover to see other rain measurements)
** Current wind speed in m/s (hover to see current wind gust speed)